EW3230 Weather Reports


Display with metric or nautical units.
time (UTC)temp
F
wind
direction
speed
MPH
gust
MPH
rain 1hr
in
rain 24hr
in
rain mn
in
humidity
%
barometer
mb
20260507065420 55 221 0.0 0.0 0.00 0.10 0.00 64 1006.4
20260507064420 55 221 0.0 1.0 0.00 0.10 0.00 64 1006.3
20260507063922 55 221 0.0 1.0 0.00 0.10 0.00 65 1006.3
20260507062420 55 221 0.0 1.0 0.00 0.10 0.00 65 1006.3
20260507061422 55 221 0.0 1.0 0.00 0.10 0.00 65 1006.8
20260507060421 55 221 0.0 1.0 0.00 0.10 0.00 65 1006.6
20260507055416 54 255 0.0 1.0 0.00 0.10 0.00 65 1006.8
20260507054916 54 123 0.0 1.0 0.00 0.10 0.00 65 1006.7
20260507053414 55 170 0.0 1.0 0.00 0.10 0.00 65 1007.1
20260507052414 55 130 0.0 1.0 0.00 0.10 0.00 65 1007.3
20260507051415 55 268 0.0 1.0 0.00 0.10 0.00 65 1007.3
20260507050415 55 197 0.0 1.0 0.00 0.10 0.00 65 1007.3
20260507045418 55 203 0.0 1.0 0.00 0.10 0.00 65 1007.5
20260507044414 55 203 0.0 1.0 0.00 0.10 0.00 65 1007.4
20260507043415 55 203 0.0 1.0 0.00 0.10 0.00 65 1007.3
20260507042911 55 200 0.0 1.0 0.00 0.10 0.00 65 1007.5
20260507041408 55 203 0.0 1.0 0.00 0.10 0.00 65 1007.5
20260507040409 55 204 0.0 1.0 0.00 0.10 0.00 65 1007.5
20260507035407 55 215 0.0 1.0 0.00 0.10 0.10 65 1007.5
20260507034406 55 205 0.0 1.0 0.00 0.10 0.10 66 1007.5
20260507033408 55 210 0.0 3.0 0.00 0.10 0.10 66 1007.9
20260507032909 55 200 1.0 4.0 0.00 0.10 0.10 66 1007.7
20260507031406 55 201 1.0 4.0 0.00 0.10 0.10 66 1007.7
20260507030412 55 97 1.0 2.0 0.00 0.10 0.10 66 1007.3
20260507030406 55 229 1.0 4.0 0.00 0.10 0.10 66 1007.4
20260507024402 55 248 1.0 4.0 0.00 0.10 0.10 66 1007.4
20260507023401 55 208 1.0 2.0 0.00 0.10 0.10 66 1007.4
20260507022400 55 167 0.0 2.0 0.00 0.10 0.10 66 1007.7
20260507021400 56 206 1.0 4.0 0.00 0.10 0.10 66 1007.9
20260507020402 56 208 1.0 3.0 0.01 0.10 0.10 66 1008.0
20260507015401 56 180 1.0 3.0 0.01 0.10 0.10 66 1008.1
20260507014906 56 167 1.0 4.0 0.01 0.10 0.10 66 1008.1
20260507013404 56 198 1.0 5.0 0.01 0.10 0.10 66 1008.3
20260507012359 56 203 2.0 6.0 0.01 0.10 0.10 66 1008.5
20260507011407 56 174 2.0 7.0 0.01 0.10 0.10 66 1008.5
20260507010353 56 222 2.0 5.0 0.01 0.09 0.09 66 1008.4
20260507005353 56 229 1.0 8.0 0.02 0.09 0.09 66 1008.4
20260507004354 56 212 1.0 5.0 0.03 0.09 0.09 66 1008.4
20260507003355 56 224 1.0 5.0 0.05 0.09 0.09 66 1008.4
20260507002354 56 224 2.0 6.0 0.05 0.09 0.09 67 1008.4
20260507001853 56 179 2.0 6.0 0.05 0.09 0.09 67 1008.5
20260507001507 56 242 1.0 4.0 0.05 0.08 0.08 67 1008.5
20260506235346 56 210 1.0 5.0 0.05 0.07 0.07 67 1008.4
20260506234349 56 246 1.0 4.0 0.05 0.06 0.06 68 1008.4
20260506233847 56 205 2.0 7.0 0.03 0.04 0.04 68 1008.4
20260506232347 56 207 2.0 6.0 0.04 0.04 0.04 69 1008.1
20260506231348 56 190 2.0 8.0 0.04 0.04 0.04 69 1008.3
20260506230850 56 109 2.0 6.0 0.03 0.03 0.03 70 1008.4
20260506225347 56 194 2.0 9.0 0.02 0.02 0.02 71 1008.5
20260506224347 57 236 1.0 5.0 0.01 0.01 0.01 72 1008.5
20260506223347 57 235 2.0 10.0 0.01 0.01 0.01 74 1008.5
20260506222844 58 188 3.0 8.0 0.00 0.00 0.00 76 1008.8
20260506221340 58 223 2.0 8.0 0.00 0.00 0.00 78 1008.8
20260506220341 59 198 2.0 6.0 0.00 0.00 0.00 79 1008.9
20260506215341 59 222 3.0 7.0 0.00 0.00 0.00 80 1008.9
20260506214341 59 210 2.0 4.0 0.00 0.00 0.00 80 1008.9
20260506213342 59 195 3.0 8.0 0.00 0.00 0.00 80 1009.0
20260506212345 59 225 3.0 8.0 0.00 0.00 0.00 80 1009.2
20260506212340 59 158 2.0 7.0 0.00 0.00 0.00 80 1009.0
20260506210341 60 198 2.0 7.0 0.00 0.00 0.00 81 1009.3
20260506205335 60 200 2.0 8.0 0.00 0.00 0.00 81 1009.3
20260506204838 60 229 2.0 9.0 0.00 0.00 0.00 81 1009.2
20260506203336 60 212 3.0 11.0 0.00 0.00 0.00 81 1009.3
20260506202838 60 217 3.0 9.0 0.00 0.00 0.00 81 1009.5
20260506201335 60 225 2.0 6.0 0.00 0.00 0.00 81 1009.5
20260506200335 60 186 3.0 11.0 0.00 0.00 0.00 81 1009.7
20260506195336 61 242 3.0 9.0 0.00 0.00 0.00 80 1009.8
20260506194336 61 155 3.0 11.0 0.00 0.00 0.00 80 1009.8
20260506193335 61 191 3.0 8.0 0.00 0.00 0.00 80 1010.0
20260506192334 62 242 3.0 8.0 0.00 0.00 0.00 80 1010.0
20260506191333 62 198 2.0 6.0 0.00 0.00 0.00 79 1010.1
20260506190345 62 206 3.0 12.0 0.00 0.00 0.00 79 1010.0
20260506185333 63 210 2.0 9.0 0.00 0.00 0.00 78 1010.2
20260506184333 63 205 3.0 9.0 0.00 0.00 0.00 79 1010.3
20260506183333 62 221 4.0 10.0 0.00 0.00 0.00 79 1010.5
20260506182333 63 192 4.0 8.0 0.00 0.00 0.00 78 1010.7
20260506181835 63 198 3.0 8.0 0.00 0.00 0.00 77 1010.9
20260506180334 64 174 4.0 11.0 0.00 0.00 0.00 77 1011.0
20260506175333 65 207 4.0 9.0 0.00 0.00 0.00 76 1011.1
20260506174333 65 203 4.0 12.0 0.00 0.00 0.00 76 1011.4
20260506173332 65 221 5.0 12.0 0.00 0.00 0.00 76 1011.3
20260506172330 65 110 6.0 11.0 0.00 0.00 0.00 76 1011.2
20260506171332 64 218 5.0 11.0 0.00 0.00 0.00 77 1011.5
20260506170333 63 228 4.0 9.0 0.00 0.00 0.00 78 1011.5
20260506165332 63 239 5.0 14.0 0.00 0.00 0.00 78 1011.7
20260506164332 64 215 4.0 9.0 0.00 0.00 0.00 77 1011.8
20260506163330 64 221 3.0 7.0 0.00 0.00 0.00 76 1011.9
20260506162328 65 136 3.0 8.0 0.00 0.00 0.00 75 1012.1
20260506161328 65 236 4.0 9.0 0.00 0.00 0.00 75 1012.2
20260506160327 65 198 4.0 9.0 0.00 0.00 0.00 75 1012.2
20260506155828 65 312 5.0 14.0 0.00 0.00 0.00 75 1012.3
20260506154828 65 214 5.0 12.0 0.00 0.00 0.00 75 1012.3
20260506153327 65 209 5.0 13.0 0.00 0.00 0.00 76 1012.4
20260506152326 65 194 5.0 12.0 0.00 0.00 0.00 76 1012.7
20260506151324 64 152 4.0 15.0 0.00 0.00 0.00 76 1012.7
20260506144842 64 296 4.0 9.0 0.00 0.00 0.00 76 1012.7
20260506143325 64 194 4.0 9.0 0.00 0.00 0.00 76 1012.6
20260506142326 65 211 3.0 11.0 0.00 0.00 0.00 75 1012.3
20260506141824 66 228 3.0 9.0 0.00 0.00 0.00 74 1012.3
20260506140322 65 184 4.0 9.0 0.00 0.00 0.00 75 1012.4
20260506135321 65 207 4.0 7.0 0.00 0.00 0.00 76 1012.6
20260506134822 65 200 3.0 8.0 0.00 0.00 0.00 77 1012.8
20260506133321 64 191 4.0 13.0 0.00 0.00 0.00 78 1012.8
20260506132325 63 245 5.0 11.0 0.00 0.00 0.00 78 1012.6
20260506131322 63 152 4.0 8.0 0.00 0.00 0.00 78 1012.5
20260506130320 63 180 3.0 8.0 0.00 0.00 0.00 79 1012.3
20260506125320 63 215 4.0 9.0 0.00 0.00 0.00 79 1012.4
20260506124320 63 203 4.0 9.0 0.00 0.00 0.00 79 1012.7
20260506123318 63 191 3.0 8.0 0.00 0.00 0.00 80 1012.8
20260506122314 62 198 3.0 8.0 0.00 0.00 0.00 80 1012.8
20260506121315 62 210 3.0 7.0 0.00 0.00 0.00 80 1012.8
20260506120314 61 277 3.0 9.0 0.00 0.00 0.00 81 1012.8
20260506115313 60 148 2.0 8.0 0.00 0.00 0.00 81 1013.0
20260506113311 58 197 3.0 7.0 0.00 0.00 0.00 80 1013.2
20260506112310 58 239 2.0 7.0 0.00 0.00 0.00 80 1013.1
20260506111317 58 225 2.0 7.0 0.00 0.00 0.00 79 1012.9
20260506110259 58 236 2.0 5.0 0.00 0.00 0.00 78 1013.1
20260506105259 57 222 2.0 6.0 0.00 0.00 0.00 78 1013.1
20260506104259 57 187 2.0 7.0 0.00 0.00 0.00 77 1013.3
20260506102757 57 187 2.0 8.0 0.00 0.00 0.00 77 1013.1
20260506101256 57 187 2.0 6.0 0.00 0.00 0.00 77 1013.0
20260506100252 56 167 1.0 6.0 0.00 0.00 0.00 76 1012.9
20260506095253 56 210 1.0 5.0 0.00 0.00 0.00 77 1012.9
20260506094747 57 221 2.0 8.0 0.00 0.00 0.00 77 1013.0
20260506093246 57 214 2.0 5.0 0.00 0.00 0.00 77 1013.0
20260506092244 57 241 2.0 7.0 0.00 0.00 0.00 77 1013.1
20260506091249 57 214 1.0 5.0 0.00 0.00 0.00 76 1013.2
20260506091243 57 250 2.0 5.0 0.00 0.00 0.00 76 1013.2
20260506085745 58 245 1.0 7.0 0.00 0.00 0.00 77 1013.1
20260506084241 58 183 2.0 8.0 0.00 0.00 0.00 76 1013.3
20260506083240 58 203 2.0 7.0 0.00 0.00 0.00 75 1013.3
20260506082242 57 205 2.0 9.0 0.00 0.00 0.00 75 1013.2
20260506081242 57 123 1.0 5.0 0.00 0.00 0.00 76 1013.3
20260506080238 57 224 2.0 6.0 0.00 0.00 0.00 76 1013.3
20260506073236 56 169 2.0 7.0 0.00 0.00 0.00 76 1013.1
20260506072234 56 212 2.0 6.0 0.00 0.00 0.00 77 1013.2
20260506071236 56 250 2.0 8.0 0.00 0.00 0.00 78 1013.1